TimeEDT,TemperatureF,Dew PointF,Humidity,Sea Level PressureIn,VisibilityMPH,Wind Direction,Wind SpeedMPH,Gust SpeedMPH,PrecipitationIn,Events,Conditions,WindDirDegrees,DateUTC
12:15 AM,44.6,42.8,93,29.78,10.0,WSW,3.5,-,N/A,,Clear,240,2012-10-20 04:15:00
12:35 AM,46.4,42.8,87,29.78,10.0,Calm,Calm,-,N/A,,Clear,0,2012-10-20 04:35:00
12:55 AM,44.6,42.8,93,29.79,10.0,Calm,Calm,-,N/A,,Clear,0,2012-10-20 04:55:00
1:15 AM,44.6,42.8,93,29.78,10.0,Calm,Calm,-,N/A,,Clear,0,2012-10-20 05:15:00
1:35 AM,42.8,41.0,93,29.78,10.0,Calm,Calm,-,N/A,,Clear,0,2012-10-20 05:35:00
1:55 AM,44.6,42.8,93,29.78,10.0,Calm,Calm,-,N/A,,Clear,0,2012-10-20 05:55:00
2:15 AM,42.8,42.8,100,29.78,10.0,Calm,Calm,-,N/A,,Clear,0,2012-10-20 06:15:00
2:35 AM,44.6,42.8,93,29.78,10.0,Calm,Calm,-,N/A,,Clear,0,2012-10-20 06:35:00
2:55 AM,42.8,42.8,100,29.78,10.0,Calm,Calm,-,N/A,,Clear,0,2012-10-20 06:55:00
3:15 AM,42.8,41.0,93,29.78,10.0,Calm,Calm,-,N/A,,Clear,0,2012-10-20 07:15:00
3:35 AM,42.8,42.8,100,29.78,10.0,Calm,Calm,-,N/A,,Clear,0,2012-10-20 07:35:00
3:55 AM,42.8,42.8,100,29.78,10.0,Calm,Calm,-,N/A,,Clear,0,2012-10-20 07:55:00
4:15 AM,41.0,41.0,100,29.78,10.0,Calm,Calm,-,N/A,,Clear,0,2012-10-20 08:15:00
4:35 AM,41.0,41.0,100,29.77,10.0,Calm,Calm,-,N/A,,Clear,0,2012-10-20 08:35:00
4:55 AM,41.0,41.0,100,29.78,10.0,Calm,Calm,-,N/A,,Clear,0,2012-10-20 08:55:00
5:15 AM,41.0,41.0,100,29.79,10.0,Calm,Calm,-,N/A,,Clear,0,2012-10-20 09:15:00
5:35 AM,41.0,41.0,100,29.79,10.0,Calm,Calm,-,N/A,,Clear,0,2012-10-20 09:35:00
5:55 AM,41.0,41.0,100,29.79,10.0,Calm,Calm,-,N/A,,Clear,0,2012-10-20 09:55:00
6:15 AM,41.0,41.0,100,29.79,10.0,Calm,Calm,-,N/A,,Clear,0,2012-10-20 10:15:00
6:35 AM,41.0,41.0,100,29.80,10.0,Calm,Calm,-,N/A,,Clear,0,2012-10-20 10:35:00
6:55 AM,39.2,39.2,100,29.80,10.0,Calm,Calm,-,N/A,,Clear,0,2012-10-20 10:55:00
7:15 AM,39.2,39.2,100,29.81,10.0,Calm,Calm,-,N/A,,Clear,0,2012-10-20 11:15:00
7:35 AM,41.0,41.0,100,29.81,10.0,Calm,Calm,-,N/A,,Clear,0,2012-10-20 11:35:00
7:55 AM,41.0,41.0,100,29.82,10.0,Calm,Calm,-,N/A,,Clear,0,2012-10-20 11:55:00
8:15 AM,41.0,41.0,100,29.84,10.0,Calm,Calm,-,N/A,,Clear,0,2012-10-20 12:15:00
8:35 AM,42.8,42.8,100,29.84,10.0,Calm,Calm,-,N/A,,Clear,0,2012-10-20 12:35:00
8:55 AM,44.6,44.6,100,29.85,10.0,Calm,Calm,-,N/A,,Scattered Clouds,0,2012-10-20 12:55:00
9:15 AM,48.2,46.4,93,29.85,10.0,Calm,Calm,-,N/A,,Scattered Clouds,0,2012-10-20 13:15:00
9:35 AM,51.8,44.6,76,29.85,10.0,Calm,Calm,-,N/A,,Scattered Clouds,0,2012-10-20 13:35:00
9:55 AM,55.4,46.4,72,29.86,10.0,Calm,Calm,-,N/A,,Clear,0,2012-10-20 13:55:00
10:15 AM,57.2,44.6,63,29.86,10.0,NW,3.5,-,N/A,,Clear,320,2012-10-20 14:15:00
10:35 AM,60.8,44.6,55,29.86,10.0,NNW,5.8,-,N/A,,Clear,340,2012-10-20 14:35:00
10:55 AM,60.8,42.8,52,29.86,10.0,NNW,5.8,-,N/A,,Clear,330,2012-10-20 14:55:00
11:15 AM,62.6,44.6,52,29.87,10.0,NW,6.9,-,N/A,,Clear,310,2012-10-20 15:15:00
11:35 AM,62.6,42.8,48,29.87,10.0,WNW,9.2,-,N/A,,Clear,300,2012-10-20 15:35:00
11:55 AM,64.4,42.8,45,29.85,10.0,NNW,5.8,-,N/A,,Clear,330,2012-10-20 15:55:00
12:15 PM,64.4,42.8,45,29.85,10.0,NNW,5.8,-,N/A,,Clear,330,2012-10-20 16:15:00
12:35 PM,64.4,42.8,45,29.85,10.0,WNW,5.8,-,N/A,,Clear,300,2012-10-20 16:35:00
12:55 PM,64.4,42.8,45,29.84,10.0,WNW,4.6,-,N/A,,Clear,290,2012-10-20 16:55:00
1:15 PM,64.4,41.0,42,29.84,10.0,NNW,6.9,-,N/A,,Clear,340,2012-10-20 17:15:00
1:35 PM,66.2,42.8,43,29.84,10.0,NW,5.8,-,N/A,,Clear,310,2012-10-20 17:35:00
1:55 PM,66.2,41.0,40,29.82,10.0,Calm,Calm,-,N/A,,Clear,0,2012-10-20 17:55:00
2:15 PM,66.2,41.0,40,29.82,10.0,SW,5.8,-,N/A,,Clear,230,2012-10-20 18:15:00
2:35 PM,68.0,42.8,40,29.82,10.0,NW,5.8,-,N/A,,Clear,320,2012-10-20 18:35:00
2:55 PM,68.0,42.8,40,29.82,10.0,NW,6.9,-,N/A,,Clear,310,2012-10-20 18:55:00
3:15 PM,68.0,41.0,37,29.82,10.0,West,6.9,-,N/A,,Clear,270,2012-10-20 19:15:00
3:35 PM,68.0,42.8,40,29.82,10.0,WNW,3.5,-,N/A,,Scattered Clouds,290,2012-10-20 19:35:00
3:55 PM,68.0,42.8,40,29.82,10.0,WNW,3.5,-,N/A,,Scattered Clouds,290,2012-10-20 19:55:00
4:15 PM,68.0,42.8,40,29.83,10.0,WNW,3.5,-,N/A,,Clear,300,2012-10-20 20:15:00
4:35 PM,68.0,42.8,40,29.84,10.0,Calm,Calm,-,N/A,,Scattered Clouds,0,2012-10-20 20:35:00
4:55 PM,68.0,42.8,40,29.84,10.0,West,4.6,-,N/A,,Mostly Cloudy,260,2012-10-20 20:55:00
5:15 PM,66.2,41.0,40,29.85,10.0,WNW,3.5,-,N/A,,Scattered Clouds,290,2012-10-20 21:15:00
5:35 PM,64.4,42.8,45,29.85,10.0,West,3.5,-,N/A,,Scattered Clouds,280,2012-10-20 21:35:00
5:55 PM,62.6,42.8,48,29.86,10.0,Calm,Calm,-,N/A,,Scattered Clouds,0,2012-10-20 21:55:00
6:15 PM,59.0,46.4,63,29.87,10.0,Calm,Calm,-,N/A,,Scattered Clouds,0,2012-10-20 22:15:00
6:35 PM,55.4,48.2,77,29.87,10.0,Calm,Calm,-,N/A,,Mostly Cloudy,0,2012-10-20 22:35:00
6:55 PM,55.4,48.2,77,29.89,10.0,Calm,Calm,-,N/A,,Overcast,0,2012-10-20 22:55:00
7:15 PM,55.4,46.4,72,29.90,10.0,Calm,Calm,-,N/A,,Mostly Cloudy,0,2012-10-20 23:15:00
7:35 PM,57.2,42.8,59,29.91,10.0,NNW,4.6,-,N/A,,Scattered Clouds,340,2012-10-20 23:35:00
7:55 PM,57.2,42.8,59,29.92,10.0,NNW,3.5,-,N/A,,Clear,340,2012-10-20 23:55:00
8:15 PM,55.4,41.0,58,29.93,10.0,NNW,3.5,-,N/A,,Clear,340,2012-10-21 00:15:00
8:35 PM,55.4,41.0,58,29.93,10.0,NNW,3.5,-,N/A,,Clear,340,2012-10-21 00:35:00
8:55 PM,55.4,41.0,58,29.94,10.0,NNW,3.5,-,N/A,,Clear,340,2012-10-21 00:55:00
9:15 PM,53.6,41.0,62,29.95,10.0,Calm,Calm,-,N/A,,Clear,0,2012-10-21 01:15:00
9:35 PM,53.6,41.0,62,29.96,10.0,Calm,Calm,-,N/A,,Clear,0,2012-10-21 01:35:00
9:55 PM,51.8,42.8,71,29.97,10.0,Calm,Calm,-,N/A,,Clear,0,2012-10-21 01:55:00
10:15 PM,50.0,42.8,76,29.98,10.0,Calm,Calm,-,N/A,,Clear,0,2012-10-21 02:15:00
10:35 PM,48.2,42.8,82,29.98,10.0,Calm,Calm,-,N/A,,Clear,0,2012-10-21 02:35:00
10:55 PM,48.2,42.8,82,29.99,10.0,Calm,Calm,-,N/A,,Clear,0,2012-10-21 02:55:00
11:15 PM,46.4,44.6,93,29.98,10.0,Calm,Calm,-,N/A,,Clear,0,2012-10-21 03:15:00
11:35 PM,46.4,44.6,93,29.98,10.0,Calm,Calm,-,N/A,,Clear,0,2012-10-21 03:35:00
11:55 PM,44.6,44.6,100,29.98,10.0,Calm,Calm,-,N/A,,Clear,0,2012-10-21 03:55:00